Wind_Speed
75 78 81 82 83 85 86 83 76 70 66 66 65 59 50 44 43 46 49 51 56 66 79 92 92 89 87 85 83 82 79 76 74 73 72 71 69 67 67 66 65 64 63
78 79 81 83 85 85 83 74 64 60 61 61 56 49 43 42 42 42 43 45 47 51 58 70 87 94 93 90 88 85 83 81 78 75 74 72 70 69 68 67 67 66 66
79 80 82 84 84 81 72 61 55 55 57 57 53 49 46 47 48 46 44 45 46 47 48 54 67 82 94 96 94 90 87 83 81 79 77 75 74 71 70 68 68 68 68
79 81 83 81 78 72 63 55 53 54 57 56 53 52 51 52 53 50 46 45 45 46 47 47 51 64 78 90 96 96 92 88 84 82 80 78 76 74 73 71 70 68 68
81 82 79 75 71 64 56 53 54 57 58 59 57 55 55 55 56 54 50 46 44 44 44 43 43 48 60 73 86 94 95 92 89 86 85 82 79 77 75 74 72 70 69
81 78 74 69 64 58 54 55 58 61 62 62 60 57 55 56 56 55 52 48 44 41 41 40 39 39 44 53 64 76 86 91 90 88 87 87 85 81 79 76 74 72 71
78 73 68 63 58 56 56 59 62 64 63 62 60 57 54 53 53 53 51 49 45 40 37 37 36 35 36 40 47 54 64 76 84 86 86 87 88 87 84 82 78 75 74
74 69 64 60 58 59 61 63 64 64 61 58 55 52 50 48 48 49 49 48 46 41 36 34 34 33 33 34 38 43 50 58 69 77 82 83 84 86 86 85 83 81 78
71 65 62 61 63 65 65 64 61 58 55 52 49 48 47 46 45 45 46 46 45 42 38 34 33 32 33 33 34 37 41 47 53 62 70 76 79 82 84 86 86 84 82
67 64 63 65 66 67 64 60 55 52 50 49 49 48 48 47 46 46 46 46 45 42 40 38 35 33 33 34 34 34 36 39 42 47 54 61 68 74 79 82 84 85 84
65 65 66 68 67 63 58 53 50 49 48 48 48 48 48 48 48 48 48 47 46 44 41 40 39 36 35 35 35 34 34 36 37 39 42 46 51 58 66 74 79 82 84
65 66 68 67 62 57 53 50 49 49 50 50 50 50 50 51 52 52 50 48 45 43 41 40 41 42 40 38 37 35 34 35 37 39 40 41 43 47 53 61 70 77 81
66 68 67 63 57 53 51 50 50 51 52 54 54 53 53 53 53 52 49 46 43 40 38 38 39 43 45 43 40 38 36 36 38 41 42 42 42 43 46 51 58 67 75
68 68 64 58 54 52 52 52 52 53 55 56 55 54 53 52 52 51 47 43 40 37 34 34 35 40 46 47 45 43 40 39 40 43 44 44 44 44 45 47 50 55 62
68 65 59 55 52 52 53 53 54 55 56 56 54 53 53 53 52 51 48 43 38 34 30 29 31 34 41 47 47 46 44 43 42 43 44 45 46 45 46 48 50 52 55
67 61 55 53 52 53 54 54 56 57 56 55 53 52 53 54 54 52 49 44 39 34 29 25 26 29 35 42 46 47 45 44 43 43 43 43 44 44 43 44 45 48 52
64 57 53 52 52 54 55 56 58 58 57 55 52 52 54 57 57 55 52 47 41 35 30 25 23 25 30 35 41 44 43 43 42 42 41 40 40 39 38 38 39 43 51
60 53 52 52 54 55 56 57 60 60 58 55 52 54 57 59 59 58 56 52 44 36 30 26 22 22 26 31 35 39 40 40 40 40 40 38 36 35 36 38 41 43 50
56 53 53 54 55 55 56 59 61 61 59 54 53 55 57 59 59 60 60 56 46 37 30 25 21 20 23 28 32 36 39 41 42 42 41 39 37 38 41 42 42 45 50
54 53 54 55 55 55 57 59 61 61 58 54 54 56 58 59 60 62 63 59 47 35 28 23 20 19 21 26 31 34 38 42 43 44 44 43 41 41 43 43 42 44 48
53 53 55 55 55 55 57 59 61 61 58 55 56 57 59 60 62 64 65 59 45 31 25 21 18 17 20 24 28 32 36 41 44 45 46 46 46 44 43 43 43 43 45
52 54 55 55 55 55 56 59 60 60 58 56 57 59 61 62 63 66 66 59 44 29 21 18 17 16 18 22 26 29 33 38 43 46 46 47 48 48 46 44 44 44 44
52 54 54 55 55 55 56 58 59 58 57 56 57 60 62 63 65 68 68 61 45 29 20 16 15 15 16 19 23 26 30 35 40 45 46 46 48 50 50 48 46 44 44
51 53 54 54 53 54 57 58 58 57 56 55 57 60 62 63 66 69 70 65 49 33 21 15 13 14 15 16 18 23 27 32 38 43 46 46 47 48 50 50 50 48 46
50 52 53 53 52 54 56 57 56 56 55 56 58 60 62 63 64 68 71 69 56 40 27 17 11 11 13 15 16 18 23 27 33 39 43 46 47 47 47 48 50 51 51
48 50 52 52 51 53 55 56 56 56 56 56 57 60 61 62 63 66 69 71 64 48 33 23 14 10 10 12 14 16 18 22 27 33 40 44 47 48 49 48 48 49 51
Wind_Direction
316 317 317 316 316 315 313 310 305 304 306 308 307 304 301 300 298 296 293 286 277 267 259 253 250 249 248 247 247 248 247 245 243 241 241 241 241 240 238 237 236 234 233
318 318 318 317 316 314 310 307 306 309 311 312 309 303 301 302 302 299 295 292 289 283 271 260 253 248 246 245 245 244 244 243 242 240 238 237 237 238 238 238 237 236 235
320 320 319 318 316 313 309 308 309 312 314 313 307 299 298 302 304 303 299 297 296 294 290 274 258 250 246 244 243 242 241 241 240 239 238 236 234 234 236 237 237 236 236
322 321 320 320 316 313 312 312 314 315 315 314 308 299 293 294 298 301 299 297 297 297 294 289 274 257 248 244 242 241 240 239 238 237 237 237 235 234 234 235 236 236 236
323 323 323 321 318 316 315 315 316 316 316 314 309 303 296 292 293 296 297 297 297 297 295 292 286 271 256 245 240 239 239 238 237 236 236 236 236 235 235 234 234 235 236
325 326 325 322 321 321 319 318 317 316 315 314 311 306 300 296 293 293 294 294 295 295 293 290 286 278 266 254 245 239 238 237 237 236 236 236 236 236 236 235 234 234 234
329 328 326 325 324 324 321 319 317 316 315 313 310 308 304 300 297 294 292 291 290 289 289 286 281 275 267 258 250 243 238 237 237 236 236 237 237 238 238 237 236 236 235
331 330 328 326 326 324 322 321 319 318 316 315 314 314 312 308 305 301 297 292 288 285 282 281 276 269 262 256 250 244 239 237 237 238 238 238 238 239 240 241 241 239 237
333 331 328 328 327 326 325 324 323 322 323 324 324 322 320 318 314 311 307 301 293 285 277 272 270 265 258 252 248 244 240 237 237 238 239 240 240 242 243 243 243 243 241
333 331 329 330 329 328 327 328 330 331 331 329 327 325 323 320 318 316 312 307 301 291 278 267 262 259 254 249 247 244 239 234 232 232 235 237 239 240 242 243 244 244 243
333 331 331 332 331 330 332 335 335 335 333 332 329 327 324 321 318 316 315 310 303 296 285 269 257 252 248 244 244 244 240 234 230 227 227 230 234 237 239 240 241 241 242
334 333 334 333 333 335 337 338 337 336 335 334 332 329 326 323 320 317 314 310 304 297 289 276 260 249 244 241 240 239 239 237 233 230 228 229 232 235 237 238 239 238 238
335 335 336 335 337 340 340 339 338 337 336 335 333 331 330 328 325 322 317 312 306 298 289 280 267 253 244 238 237 236 236 235 233 231 231 232 234 236 236 237 237 237 235
337 337 337 339 342 342 341 340 339 337 336 336 335 335 335 335 334 332 326 318 311 302 293 281 270 258 248 239 235 234 234 234 233 232 232 234 235 237 238 238 239 237 235
339 339 340 344 345 344 343 342 340 339 338 338 339 339 340 340 339 338 336 329 319 310 298 287 272 261 251 243 237 234 233 232 233 233 234 235 237 240 242 242 241 238 233
341 342 345 347 346 345 344 343 342 341 341 342 342 342 343 345 344 342 339 335 327 318 306 295 277 263 254 245 238 234 233 232 231 232 233 236 239 242 245 243 240 234 225
343 345 348 348 346 345 345 346 345 345 344 344 344 344 345 347 347 346 343 338 331 322 312 301 285 268 257 247 239 234 232 231 229 229 230 234 238 241 239 233 224 222 214
345 348 350 348 347 347 347 348 347 347 346 345 345 345 345 346 346 345 344 340 332 323 314 303 289 272 260 250 239 232 227 225 224 223 224 227 231 230 223 215 212 213 210
348 350 350 349 348 348 348 348 348 348 348 347 346 347 347 347 347 346 344 340 333 323 313 304 289 272 260 252 242 229 221 218 218 217 217 218 219 217 212 213 213 210 209
350 351 351 350 350 350 349 349 350 350 350 350 350 350 349 348 347 346 344 341 334 322 310 302 288 270 257 252 244 230 219 216 215 215 214 213 212 212 213 214 214 212 210
352 351 351 351 352 352 352 352 352 353 354 354 353 352 351 351 349 348 347 345 338 325 310 299 287 270 255 249 247 236 222 217 216 215 214 213 212 211 211 211 213 211 210
353 352 352 352 353 353 354 354 354 355 356 356 355 354 354 354 354 353 353 351 345 332 314 298 286 272 255 247 246 242 231 222 219 216 215 215 214 213 211 208 208 209 209
355 354 354 354 354 355 356 356 357 358 359 359 358 358 358 358 359 359 359 358 354 345 327 304 286 274 260 249 245 244 238 229 223 218 215 216 215 216 215 213 210 208 209
357 356 356 356 356 356 358 358 360 1 1 2 1 1 2 2 2 3 4 4 3 357 344 321 294 276 264 254 246 245 242 236 228 222 218 217 216 216 218 218 216 214 212
358 358 359 358 358 358 360 1 3 4 4 4 4 5 5 5 6 7 9 10 9 5 360 347 318 285 269 261 253 248 246 241 235 228 223 220 219 218 217 218 219 218 217
358 0 1 0 360 1 2 4 6 7 7 7 8 9 9 10 11 12 13 14 15 13 9 3 349 318 287 273 264 257 252 247 241 234 228 223 221 220 219 218 219 219 218
Height
5768 5756 5742 5728 5715 5701 5687 5673 5659 5648 5639 5632 5623 5614 5605 5597 5589 5582 5575 5571 5568 5567 5568 5573 5578 5584 5591 5598 5605 5612 5620 5627 5634 5641 5647 5654 5661 5669 5676 5683 5690 5696 5702
5755 5741 5727 5713 5699 5685 5669 5654 5642 5633 5625 5616 5607 5599 5592 5585 5578 5571 5564 5557 5552 5548 5544 5542 5547 5554 5562 5570 5578 5586 5596 5605 5613 5621 5628 5636 5644 5651 5658 5666 5674 5681 5687
5741 5728 5713 5698 5683 5666 5650 5639 5630 5621 5612 5603 5594 5586 5578 5571 5564 5557 5550 5543 5536 5529 5524 5520 5518 5522 5530 5540 5549 5559 5570 5582 5591 5599 5608 5617 5625 5632 5640 5649 5656 5664 5671
5727 5712 5697 5682 5664 5648 5635 5625 5617 5608 5599 5589 5580 5572 5564 5557 5550 5543 5536 5529 5521 5514 5507 5501 5497 5496 5499 5509 5520 5531 5543 5556 5568 5577 5586 5596 5605 5614 5623 5631 5639 5647 5655
5713 5697 5681 5664 5647 5634 5623 5614 5605 5595 5585 5575 5565 5557 5548 5541 5534 5527 5521 5515 5508 5501 5493 5486 5481 5477 5478 5482 5491 5503 5516 5529 5543 5555 5565 5575 5584 5593 5603 5614 5623 5630 5638
5699 5682 5666 5648 5634 5622 5612 5603 5593 5582 5571 5560 5549 5540 5532 5524 5517 5511 5505 5500 5494 5488 5481 5474 5468 5465 5464 5465 5470 5479 5491 5504 5518 5531 5543 5553 5563 5574 5582 5593 5604 5612 5620
5685 5668 5651 5636 5623 5613 5603 5591 5580 5568 5556 5544 5533 5523 5515 5507 5500 5493 5488 5483 5479 5475 5470 5463 5458 5455 5453 5454 5458 5464 5472 5482 5494 5507 5520 5531 5542 5552 5561 5572 5583 5593 5602
5671 5654 5638 5625 5614 5603 5591 5579 5566 5553 5541 5529 5518 5508 5500 5492 5485 5478 5472 5467 5463 5460 5458 5453 5449 5446 5445 5445 5447 5452 5458 5465 5474 5486 5498 5510 5522 5531 5540 5551 5561 5571 5582
5660 5643 5629 5616 5604 5591 5577 5564 5552 5539 5527 5517 5508 5498 5489 5481 5473 5465 5458 5452 5447 5444 5443 5441 5439 5437 5436 5436 5438 5441 5446 5452 5459 5468 5478 5490 5501 5511 5520 5529 5539 5549 5560
5649 5634 5620 5608 5593 5578 5564 5551 5539 5529 5519 5509 5499 5490 5480 5471 5462 5454 5446 5439 5433 5429 5427 5427 5427 5426 5426 5426 5428 5431 5435 5440 5446 5453 5461 5471 5480 5489 5498 5508 5518 5528 5540
5641 5626 5612 5598 5582 5568 5555 5543 5532 5522 5512 5502 5491 5481 5472 5462 5452 5443 5434 5426 5419 5414 5411 5410 5412 5414 5415 5416 5418 5421 5425 5429 5435 5441 5448 5455 5462 5470 5478 5487 5497 5508 5519
5633 5619 5604 5588 5573 5561 5549 5538 5527 5516 5505 5494 5483 5472 5462 5451 5441 5431 5421 5413 5405 5399 5395 5394 5396 5399 5402 5405 5408 5411 5415 5419 5424 5430 5437 5443 5450 5456 5463 5470 5478 5489 5500
5626 5611 5595 5580 5567 5555 5544 5533 5522 5510 5499 5487 5475 5463 5452 5441 5429 5418 5408 5399 5392 5385 5381 5379 5379 5382 5386 5391 5396 5400 5405 5409 5414 5420 5426 5432 5438 5444 5450 5456 5463 5471 5481
5618 5603 5588 5574 5562 5551 5539 5528 5516 5504 5492 5479 5467 5455 5442 5430 5418 5406 5395 5386 5378 5372 5368 5365 5364 5365 5368 5375 5382 5388 5393 5398 5403 5409 5415 5421 5427 5433 5438 5443 5449 5456 5464
5612 5597 5581 5569 5558 5546 5534 5522 5510 5497 5484 5472 5459 5446 5434 5421 5409 5397 5385 5375 5367 5360 5356 5353 5351 5351 5353 5358 5366 5373 5379 5385 5390 5396 5402 5408 5414 5419 5425 5430 5435 5441 5450
5606 5590 5576 5565 5553 5541 5529 5517 5504 5491 5477 5464 5452 5439 5427 5414 5401 5389 5377 5367 5358 5350 5345 5341 5339 5338 5339 5343 5350 5358 5365 5371 5377 5383 5388 5394 5400 5405 5410 5414 5420 5426 5436
5599 5585 5572 5560 5548 5536 5524 5511 5498 5484 5471 5457 5445 5432 5420 5407 5394 5381 5369 5359 5349 5341 5336 5331 5329 5327 5326 5329 5335 5343 5351 5358 5364 5370 5375 5381 5386 5391 5396 5401 5407 5414 5424
5593 5581 5569 5556 5544 5531 5518 5505 5492 5478 5464 5451 5438 5426 5414 5400 5387 5374 5361 5350 5340 5331 5325 5321 5318 5317 5316 5317 5322 5330 5338 5345 5352 5358 5364 5370 5375 5380 5385 5391 5398 5405 5414
5588 5576 5565 5552 5540 5527 5514 5501 5487 5472 5459 5445 5433 5421 5408 5395 5380 5366 5353 5340 5329 5320 5314 5311 5308 5307 5305 5305 5308 5316 5325 5333 5339 5346 5353 5360 5365 5370 5376 5383 5389 5396 5403
5584 5573 5561 5549 5536 5523 5510 5497 5483 5468 5454 5441 5428 5416 5402 5388 5373 5358 5343 5329 5316 5307 5302 5300 5298 5297 5296 5295 5297 5303 5312 5320 5327 5335 5343 5350 5356 5362 5369 5375 5382 5388 5394
5581 5569 5557 5545 5533 5521 5507 5494 5479 5465 5451 5437 5424 5411 5397 5383 5367 5351 5333 5317 5303 5294 5289 5288 5287 5287 5287 5287 5287 5292 5300 5307 5315 5323 5331 5339 5346 5353 5360 5367 5374 5380 5386
5579 5567 5555 5543 5531 5519 5506 5492 5477 5463 5449 5435 5422 5408 5393 5378 5362 5345 5326 5307 5292 5283 5279 5277 5277 5278 5279 5279 5280 5283 5289 5296 5303 5311 5319 5327 5335 5343 5350 5357 5365 5372 5379
5577 5566 5553 5541 5529 5517 5504 5491 5477 5463 5448 5435 5421 5406 5390 5374 5358 5340 5321 5302 5286 5276 5271 5269 5269 5270 5271 5272 5273 5275 5279 5284 5290 5299 5308 5316 5324 5332 5340 5348 5355 5363 5371
5576 5565 5553 5541 5528 5516 5503 5490 5477 5462 5448 5435 5421 5406 5390 5373 5356 5338 5319 5300 5284 5273 5267 5264 5263 5263 5264 5265 5267 5269 5271 5275 5281 5288 5297 5306 5313 5321 5329 5337 5346 5354 5362
5575 5564 5552 5540 5528 5516 5504 5490 5477 5464 5450 5436 5422 5407 5391 5375 5358 5339 5320 5301 5284 5271 5265 5261 5259 5259 5259 5260 5262 5263 5266 5268 5273 5279 5287 5296 5304 5311 5319 5327 5335 5343 5352
5575 5563 5552 5540 5528 5517 5504 5491 5478 5465 5452 5439 5425 5411 5396 5380 5363 5345 5327 5307 5289 5275 5265 5260 5257 5256 5256 5257 5258 5259 5261 5263 5266 5271 5277 5284 5292 5300 5308 5316 5324 5332 5340